Location: Unspecified
(6.5570°S, 0.0000°E)
Time: 07:57:42
(UTC+00:00)

Transit 2A Rocket - All Passes

Search period start: 04 April 2026 00:00
Search period end: 14 April 2026 00:00
Orbit: 584 x 899 km, 66.7° (Epoch: 28 March)

Date Brightness Start Highest point End Pass type
(mag) Time Alt. Az. Time Alt. Az. Time Alt. Az.
4 Apr - 03:03:47 10° SSW 03:09:35 69° ESE 03:15:34 10° NNE visible
4 Apr - 15:37:19 10° NNW 15:41:35 76° WSW 15:45:51 10° SSE daylight
5 Apr - 02:18:48 10° S 02:23:57 32° ESE 02:29:14 10° NE night (unlit)
5 Apr - 04:01:44 10° WSW 04:06:06 22° WNW 04:10:34 10° NNW visible
5 Apr - 14:52:03 10° N 14:56:01 37° ENE 14:59:58 10° SE daylight
6 Apr - 01:34:58 10° SSE 01:38:16 15° ESE 01:41:36 10° ENE night (unlit)
6 Apr - 03:14:54 10° SW 03:20:29 45° WNW 03:26:12 10° N night (unlit)
6 Apr - 14:08:06 10° NE 14:10:27 14° ENE 14:12:46 10° ESE daylight
6 Apr - 15:49:14 10° WNW 15:52:26 21° WSW 15:55:40 10° SSW daylight
7 Apr - 02:29:00 10° SSW 02:34:52 85° ESE 02:40:54 10° NNE night (unlit)
7 Apr - 15:02:38 10° NNW 15:06:49 56° WSW 15:11:00 10° S daylight
8 Apr - 01:43:47 10° S 01:49:14 40° ESE 01:54:49 10° NE night (unlit)
8 Apr - 03:27:37 10° WSW 03:31:22 17° WNW 03:35:10 10° NNW night (unlit)
8 Apr - 14:17:05 10° N 14:21:13 50° ENE 14:25:20 10° SSE daylight
9 Apr - 00:59:30 10° SSE 01:03:33 19° ESE 01:07:40 10° ENE night (unlit)
9 Apr - 02:40:23 10° SW 02:45:45 37° WNW 02:51:13 10° N night (unlit)
9 Apr - 13:32:37 10° NNE 13:35:39 19° ENE 13:38:39 10° ESE daylight
9 Apr - 15:15:02 10° WNW 15:17:41 16° WSW 15:20:19 10° SSW daylight
10 Apr - 01:54:15 10° SSW 02:00:08 78° WNW 02:06:09 10° NNE night (unlit)
10 Apr - 14:28:00 10° NW 14:32:00 41° WSW 14:36:03 10° S daylight
11 Apr - 01:08:49 10° S 01:14:30 50° ESE 01:20:18 10° NE night (unlit)
11 Apr - 02:53:46 10° W 02:56:37 14° WNW 02:59:31 10° NW night (unlit)
11 Apr - 13:42:10 10° NNW 13:46:24 69° ENE 13:50:39 10° SSE daylight
12 Apr - 00:24:12 10° SSE 00:28:49 24° ESE 00:33:31 10° ENE night (unlit)
12 Apr - 02:05:55 10° SW 02:11:00 30° WNW 02:16:09 10° NNW night (unlit)
12 Apr - 12:57:20 10° NNE 13:00:49 25° ENE 13:04:18 10° SE daylight
12 Apr - 14:41:12 10° W 14:42:54 12° WSW 14:44:37 10° SW daylight
12 Apr - 23:41:55 10° SE 23:43:04 11° ESE 23:44:15 10° ESE night (unlit)
13 Apr - 01:19:32 10° SSW 01:25:23 63° WNW 01:31:19 10° N night (unlit)
13 Apr - 13:53:26 10° NW 13:57:12 31° WSW 14:01:01 10° S daylight
